| time (UTC) | temp F | wind direction | speed MPH | gust MPH | rain 1hr in | rain 24hr in | rain mn in | humidity % | barometer mb |
| 20260510071530 | 59 | 330 | 0.0 | 0.0 | 0.00 | 0.00 | 0.00 | 98 | 1011.4 |
| 20260510070056 | 59 | 330 | 0.0 | 0.0 | 0.00 | 0.00 | 0.00 | 98 | 1011.5 |
| 20260510064519 | 59 | 330 | 0.0 | 0.0 | 0.00 | 0.00 | 0.00 | 98 | 1011.5 |
| 20260510063047 | 59 | 330 | 0.0 | 0.0 | 0.00 | 0.00 | 0.00 | 98 | 1011.3 |
| 20260510061511 | 59 | 330 | 0.0 | 0.0 | 0.00 | 0.00 | 0.00 | 98 | 1011.3 |
| 20260510060041 | 60 | 330 | 0.0 | 0.0 | 0.00 | 0.00 | 0.00 | 98 | 1011.4 |
| 20260510054501 | 60 | 330 | 0.0 | 0.0 | 0.00 | 0.00 | 0.00 | 98 | 1011.7 |
| 20260510053019 | 60 | 330 | 0.0 | 0.0 | 0.00 | 0.00 | 0.00 | 98 | 1011.9 |
| 20260510051549 | 60 | 330 | 0.0 | 0.0 | 0.00 | 0.00 | 0.00 | 98 | 1012.0 |
| 20260510050108 | 60 | 330 | 0.0 | 0.0 | 0.00 | 0.00 | 0.00 | 98 | 1012.0 |
| 20260510050007 | 60 | 330 | 0.0 | 0.0 | 0.00 | 0.00 | 0.00 | 98 | 1011.9 |
| 20260510044510 | 61 | 330 | 0.0 | 0.0 | 0.00 | 0.00 | 0.00 | 98 | 1012.0 |
| 20260510043037 | 62 | 330 | 0.0 | 0.0 | 0.00 | 0.00 | 0.00 | 98 | 1012.0 |
| 20260510041555 | 62 | 330 | 0.0 | 0.0 | 0.00 | 0.00 | 0.00 | 98 | 1011.9 |
| 20260510040021 | 61 | 330 | 0.0 | 0.0 | 0.00 | 0.00 | 0.00 | 98 | 1011.9 |
| 20260510034553 | 61 | 330 | 0.0 | 0.0 | 0.00 | 0.00 | 0.00 | 97 | 1011.8 |
| 20260510033007 | 61 | 330 | 0.0 | 0.0 | 0.00 | 0.00 | 0.00 | 97 | 1011.7 |
| 20260510031537 | 61 | 330 | 0.0 | 0.0 | 0.00 | 0.00 | 0.00 | 97 | 1011.6 |
| 20260510030100 | 61 | 330 | 0.0 | 0.0 | 0.00 | 0.00 | 0.00 | 97 | 1011.5 |
| 20260510024523 | 62 | 330 | 0.0 | 0.0 | 0.00 | 0.00 | 0.00 | 96 | 1011.4 |
| 20260510023047 | 62 | 330 | 0.0 | 0.0 | 0.00 | 0.00 | 0.00 | 97 | 1011.4 |
| 20260510021536 | 62 | 330 | 0.0 | 0.0 | 0.00 | 0.00 | 0.00 | 96 | 1011.2 |
| 20260510020033 | 62 | 330 | 0.0 | 0.0 | 0.00 | 0.00 | 0.00 | 96 | 1011.3 |
| 20260510014508 | 63 | 330 | 0.0 | 0.0 | 0.00 | 0.00 | 0.00 | 94 | 1011.1 |
| 20260510013025 | 63 | 330 | 0.0 | 0.0 | 0.00 | 0.00 | 0.00 | 93 | 1010.9 |
| 20260510011551 | 64 | 330 | 0.0 | 0.0 | 0.00 | 0.00 | 0.00 | 93 | 1010.7 |
| 20260510010032 | 65 | 330 | 0.0 | 0.0 | 0.00 | 0.00 | 0.00 | 92 | 1010.6 |
| 20260510004544 | 66 | 330 | 0.0 | 0.0 | 0.00 | 0.00 | 0.00 | 91 | 1010.4 |
| 20260510003015 | 67 | 330 | 0.0 | 0.0 | 0.00 | 0.00 | 0.00 | 89 | 1010.2 |
| 20260510001539 | 68 | 330 | 0.0 | 0.0 | 0.00 | 0.00 | 0.00 | 87 | 1010.4 |
| 20260510000006 | 69 | 330 | 0.0 | 0.0 | 0.00 | 0.00 | 0.00 | 86 | 1010.3 |
| 20260509234534 | 70 | 266 | 0.0 | 2.0 | 0.00 | 0.00 | 0.00 | 84 | 1010.2 |
| 20260509233052 | 72 | 233 | 0.0 | 0.0 | 0.00 | 0.00 | 0.00 | 80 | 1009.7 |
| 20260509231518 | 72 | 233 | 0.0 | 1.0 | 0.00 | 0.00 | 0.00 | 79 | 1009.7 |
| 20260509230047 | 73 | 252 | 0.0 | 2.0 | 0.00 | 0.00 | 0.00 | 77 | 1009.7 |
| 20260509224510 | 73 | 241 | 0.0 | 0.0 | 0.00 | 0.00 | 0.00 | 78 | 1009.4 |
| 20260509223040 | 73 | 288 | 0.0 | 2.0 | 0.00 | 0.00 | 0.00 | 77 | 1009.6 |
| 20260509221514 | 73 | 283 | 0.0 | 4.0 | 0.00 | 0.00 | 0.00 | 79 | 1009.6 |
| 20260509220035 | 73 | 266 | 0.0 | 4.0 | 0.00 | 0.00 | 0.00 | 78 | 1009.6 |
| 20260509214546 | 73 | 176 | 1.0 | 6.0 | 0.00 | 0.00 | 0.00 | 76 | 1009.6 |
| 20260509213010 | 73 | 297 | 0.0 | 8.0 | 0.00 | 0.00 | 0.00 | 77 | 1009.6 |
| 20260509211536 | 73 | 228 | 4.0 | 10.0 | 0.00 | 0.00 | 0.00 | 76 | 1009.4 |
| 20260509210053 | 72 | 206 | 2.0 | 6.0 | 0.00 | 0.00 | 0.00 | 77 | 1009.6 |
| 20260509204510 | 72 | 158 | 2.0 | 7.0 | 0.00 | 0.00 | 0.00 | 76 | 1009.3 |
| 20260509203032 | 72 | 214 | 3.0 | 8.0 | 0.00 | 0.00 | 0.00 | 76 | 1009.4 |
| 20260509201605 | 72 | 184 | 3.0 | 7.0 | 0.00 | 0.00 | 0.00 | 75 | 1009.6 |
| 20260509200026 | 71 | 236 | 3.0 | 10.0 | 0.00 | 0.00 | 0.00 | 76 | 1009.9 |
| 20260509194556 | 72 | 205 | 4.0 | 9.0 | 0.00 | 0.00 | 0.00 | 73 | 1009.8 |
| 20260509193023 | 74 | 242 | 5.0 | 10.0 | 0.00 | 0.00 | 0.00 | 70 | 1010.0 |
| 20260509191542 | 76 | 251 | 3.0 | 10.0 | 0.00 | 0.00 | 0.00 | 66 | 1010.0 |
| 20260509190018 | 74 | 214 | 4.0 | 8.0 | 0.00 | 0.00 | 0.00 | 67 | 1010.0 |
| 20260509184533 | 73 | 174 | 2.0 | 8.0 | 0.00 | 0.00 | 0.00 | 68 | 1010.3 |
| 20260509183100 | 73 | 223 | 1.0 | 6.0 | 0.00 | 0.00 | 0.00 | 70 | 1010.4 |
| 20260509181510 | 73 | 181 | 4.0 | 9.0 | 0.00 | 0.00 | 0.00 | 66 | 1010.7 |
| 20260509180037 | 73 | 184 | 3.0 | 8.0 | 0.00 | 0.00 | 0.00 | 66 | 1011.1 |
| 20260509174548 | 72 | 173 | 3.0 | 8.0 | 0.00 | 0.00 | 0.00 | 64 | 1011.3 |
| 20260509173018 | 71 | 219 | 2.0 | 9.0 | 0.00 | 0.00 | 0.00 | 67 | 1011.2 |
| 20260509171542 | 72 | 210 | 6.0 | 12.0 | 0.00 | 0.00 | 0.00 | 61 | 1011.3 |
| 20260509170006 | 72 | 209 | 6.0 | 12.0 | 0.00 | 0.00 | 0.00 | 64 | 1011.6 |
| 20260509164524 | 72 | 196 | 4.0 | 10.0 | 0.00 | 0.00 | 0.00 | 64 | 1011.6 |
| 20260509163043 | 71 | 205 | 2.0 | 8.0 | 0.00 | 0.00 | 0.00 | 65 | 1011.5 |
| 20260509161516 | 70 | 131 | 3.0 | 8.0 | 0.00 | 0.00 | 0.00 | 68 | 1011.5 |
| 20260509160041 | 70 | 177 | 3.0 | 9.0 | 0.00 | 0.00 | 0.00 | 69 | 1011.7 |
| 20260509154558 | 69 | 155 | 5.0 | 10.0 | 0.00 | 0.00 | 0.00 | 69 | 1011.7 |
| 20260509154506 | 69 | 191 | 5.0 | 10.0 | 0.00 | 0.00 | 0.00 | 68 | 1011.7 |
| 20260509153028 | 69 | 169 | 3.0 | 9.0 | 0.00 | 0.00 | 0.00 | 71 | 1011.7 |
| 20260509151544 | 69 | 200 | 4.0 | 9.0 | 0.00 | 0.00 | 0.00 | 72 | 1012.4 |
| 20260509150056 | 69 | 290 | 2.0 | 9.0 | 0.00 | 0.00 | 0.00 | 74 | 1012.7 |
| 20260509144526 | 67 | 207 | 3.0 | 8.0 | 0.00 | 0.00 | 0.00 | 77 | 1012.9 |
| 20260509143044 | 66 | 219 | 4.0 | 8.0 | 0.00 | 0.00 | 0.00 | 79 | 1013.1 |
| 20260509141512 | 64 | 224 | 2.0 | 5.0 | 0.00 | 0.00 | 0.00 | 82 | 1012.9 |
| 20260509140047 | 64 | 172 | 3.0 | 8.0 | 0.00 | 0.00 | 0.00 | 83 | 1012.8 |
| 20260509134554 | 65 | 153 | 2.0 | 4.0 | 0.00 | 0.00 | 0.00 | 86 | 1013.0 |
| 20260509133010 | 63 | 226 | 2.0 | 5.0 | 0.00 | 0.00 | 0.00 | 83 | 1013.2 |
| 20260509131534 | 63 | 141 | 2.0 | 5.0 | 0.00 | 0.00 | 0.00 | 85 | 1013.4 |
| 20260509130050 | 62 | 207 | 1.0 | 5.0 | 0.00 | 0.01 | 0.00 | 88 | 1013.7 |
| 20260509124509 | 61 | 231 | 2.0 | 6.0 | 0.00 | 0.01 | 0.00 | 88 | 1013.3 |
| 20260509123024 | 60 | 231 | 0.0 | 3.0 | 0.00 | 0.01 | 0.00 | 90 | 1013.3 |
| 20260509121543 | 58 | 231 | 0.0 | 2.0 | 0.00 | 0.01 | 0.00 | 93 | 1013.3 |
| 20260509120016 | 57 | 158 | 1.0 | 3.0 | 0.00 | 0.01 | 0.00 | 96 | 1013.6 |
| 20260509114535 | 55 | 188 | 1.0 | 3.0 | 0.00 | 0.01 | 0.00 | 98 | 1013.5 |
| 20260509113100 | 54 | 159 | 0.0 | 1.0 | 0.00 | 0.01 | 0.00 | 98 | 1013.5 |
| 20260509111515 | 53 | 170 | 0.0 | 0.0 | 0.00 | 0.01 | 0.00 | 98 | 1013.3 |
| 20260509110042 | 52 | 170 | 0.0 | 1.0 | 0.00 | 0.01 | 0.00 | 98 | 1013.0 |
| 20260509104504 | 50 | 161 | 0.0 | 0.0 | 0.00 | 0.01 | 0.00 | 97 | 1012.8 |
| 20260509103038 | 50 | 161 | 0.0 | 0.0 | 0.00 | 0.01 | 0.00 | 97 | 1012.8 |
| 20260509101606 | 51 | 161 | 0.0 | 1.0 | 0.00 | 0.01 | 0.00 | 97 | 1012.6 |
| 20260509100032 | 51 | 166 | 0.0 | 0.0 | 0.00 | 0.01 | 0.00 | 97 | 1012.4 |
| 20260509094600 | 51 | 166 | 0.0 | 0.0 | 0.00 | 0.01 | 0.00 | 96 | 1012.4 |
| 20260509093024 | 52 | 166 | 0.0 | 0.0 | 0.00 | 0.01 | 0.00 | 97 | 1012.4 |
| 20260509091548 | 51 | 166 | 0.0 | 0.0 | 0.00 | 0.01 | 0.00 | 96 | 1012.4 |
| 20260509090010 | 51 | 166 | 0.0 | 0.0 | 0.00 | 0.01 | 0.00 | 96 | 1013.0 |
| 20260509084533 | 52 | 166 | 0.0 | 0.0 | 0.00 | 0.01 | 0.00 | 96 | 1013.2 |
| 20260509083105 | 52 | 166 | 0.0 | 0.0 | 0.00 | 0.01 | 0.00 | 95 | 1013.4 |
| 20260509081515 | 53 | 166 | 0.0 | 0.0 | 0.00 | 0.01 | 0.00 | 95 | 1013.5 |
| 20260509080044 | 53 | 166 | 0.0 | 0.0 | 0.00 | 0.01 | 0.00 | 94 | 1013.4 |
| 20260509074613 | 53 | 151 | 0.0 | 0.0 | 0.00 | 0.01 | 0.00 | 94 | 1013.4 |
| 20260509073033 | 53 | 150 | 0.0 | 0.0 | 0.00 | 0.01 | 0.00 | 94 | 1013.4 |